1528768800.79,44552,19.0,73682.8,7.37,-11.67,-12.29,0,*75
1528768802.01,44553,18.94,73678.5,7.37,-11.73,-12.25,0,*7D
1528768803.24,44554,19.0,73680.3,7.37,-11.73,-12.29,0,*76
1528768804.49,44555,18.94,73678.8,7.35,-11.73,-12.39,0,*74
1528768805.76,44556,19.0,73682.3,7.35,-11.89,-12.57,0,*7A
1528768807.02,44557,19.0,73680.5,7.37,-11.89,-12.57,0,*79
1528768808.27,44558,19.0,73684.0,7.37,-11.89,-12.53,0,*72
1528768809.55,44559,19.0,73678.8,7.35,-11.97,-12.57,0,*7A
1528768810.8,44560,18.94,73678.8,7.35,-12.03,-12.79,0,*72
1528768812.05,44561,19.0,73682.8,7.35,-12.25,-12.83,0,*72
1528768813.28,44562,19.0,73680.8,7.35,-12.29,-12.97,0,*78
1528768814.51,44563,18.94,73682.0,7.35,-12.29,-12.89,0,*76
1528768815.74,44564,19.0,73682.0,7.35,-12.39,-12.97,0,*7F
1528768816.94,44565,19.0,73682.5,7.33,-12.47,-12.93,0,*75
1528768818.14,44566,19.0,73684.0,7.37,-12.39,-12.89,0,*70
1528768819.35,44567,18.94,73680.8,7.33,-12.29,-12.89,0,*74
1528768820.56,44568,19.0,73690.3,7.33,-12.29,-12.89,0,*7B
1528768821.79,44569,18.94,73682.8,7.33,-12.21,-12.83,0,*78
1528768823.04,44570,18.94,73678.8,7.35,-12.15,-12.89,0,*7B
1528768824.32,44571,19.0,73678.8,7.35,-12.15,-12.83,0,*70
1528768825.57,44572,19.0,73678.3,7.33,-12.15,-12.83,0,*75
1528768826.81,44573,19.0,73674.5,7.33,-12.21,-12.83,0,*73
1528768828.02,44574,19.0,73674.3,7.33,-12.21,-12.89,0,*7E
1528768829.25,44575,19.0,73676.5,7.33,-12.35,-12.93,0,*71
1528768830.48,44576,19.0,73678.0,7.33,-12.35,-12.93,0,*72
1528768831.71,44577,19.0,73680.0,7.33,-12.35,-12.93,0,*73
1528768832.94,44578,19.0,73682.0,7.33,-12.35,-12.89,0,*77
1528768834.17,44579,18.94,73678.8,7.31,-12.21,-12.89,0,*71
1528768835.42,44580,18.94,73674.3,7.31,-12.35,-13.07,0,*75
1528768836.67,44581,18.94,73674.5,7.31,-12.35,-12.97,0,*7C
1528768837.86,44582,19.0,73678.5,7.29,-12.39,-13.07,0,*72
1528768839.08,44583,19.0,73676.8,7.31,-12.39,-13.07,0,*7A
1528768840.3,44584,18.94,73674.8,7.31,-12.39,-13.07,0,*7D
1528768841.52,44585,19.0,73678.0,7.31,-12.39,-12.97,0,*74
1528768842.75,44586,18.94,73674.3,7.29,-12.35,-12.97,0,*72
1528768844.0,44587,19.0,73684.0,7.31,-12.35,-13.07,0,*72
1528768845.22,44588,19.0,73686.3,7.31,-12.25,-12.93,0,*70
1528768846.49,44589,19.0,73682.8,7.29,-11.93,-12.53,0,*7A
1528768847.71,44590,19.0,73676.5,7.29,-11.89,-12.39,0,*75
1528768848.96,44591,19.0,73674.8,7.31,-11.81,-12.39,0,*75
1528768850.21,44592,19.0,73672.0,7.31,-11.89,-12.39,0,*7E
1528768851.48,44593,18.94,73674.3,7.31,-11.97,-12.53,0,*7C
1528768852.75,44594,19.0,73676.3,7.31,-11.97,-12.65,0,*7E
1528768854.02,44595,19.0,73682.0,7.31,-12.07,-12.65,0,*75
1528768855.3,44596,19.0,73678.3,7.31,-11.97,-12.75,0,*7D
1528768856.57,44597,18.94,73682.8,7.31,-11.97,-12.65,0,*7D
1528768857.8,44598,19.0,73678.8,7.33,-12.03,-12.71,0,*7B
1528768859.05,44599,19.0,73676.0,7.33,-11.89,-12.57,0,*7F
1528768860.3,44600,18.94,73678.5,7.33,-11.89,-12.61,0,*79
1528768861.57,44601,19.0,73682.3,7.33,-11.93,-12.71,0,*72
1528768862.82,44602,18.94,73678.5,7.33,-11.89,-12.61,0,*7B
1528768864.04,44603,19.0,73682.0,7.33,-12.03,-12.61,0,*7B
1528768865.3,44604,19.0,73678.0,7.33,-11.89,-12.71,0,*7C
1528768866.53,44605,19.0,73680.5,7.33,-12.03,-12.71,0,*7C
1528768867.79,44606,19.0,73682.8,7.33,-12.07,-12.71,0,*7B
1528768869.05,44607,19.0,73684.0,7.33,-12.15,-12.83,0,*74
1528768870.3,44608,19.0,73682.5,7.33,-12.07,-12.83,0,*78
1528768871.51,44609,19.0,73680.5,7.33,-12.21,-12.93,0,*7C
1528768872.72,44610,18.94,73678.5,7.33,-12.21,-12.89,0,*7F
1528768873.95,44611,19.0,73678.8,7.33,-12.15,-12.89,0,*79
1528768875.16,44612,19.0,73678.3,7.33,-12.29,-12.93,0,*7E
1528768876.39,44613,19.0,73676.5,7.37,-12.15,-12.97,0,*70
1528768877.62,44614,19.0,73678.0,7.31,-12.25,-12.93,0,*76
1528768878.85,44615,19.0,73678.3,7.31,-12.21,-12.97,0,*77
1528768880.08,44616,19.0,73682.0,7.31,-12.25,-12.97,0,*70
1528768881.33,44617,19.0,73684.0,7.31,-12.35,-12.97,0,*70
1528768882.54,44618,18.94,73680.8,7.31,-12.39,-13.07,0,*7B
1528768883.74,44619,19.0,73682.8,7.29,-12.47,-13.07,0,*7A
1528768884.95,44620,19.0,73680.0,7.29,-12.21,-12.89,0,*77
1528768886.16,44621,18.94,73678.3,7.29,-12.21,-12.89,0,*76
1528768887.44,44622,19.0,73682.3,7.31,-12.11,-12.79,0,*70
1528768888.67,44623,19.0,73678.8,7.29,-12.11,-12.89,0,*77
1528768889.92,44624,18.94,73682.0,7.31,-12.11,-12.89,0,*79
1528768891.15,44625,18.94,73682.5,7.31,-12.21,-12.97,0,*74
1528768892.36,44626,19.0,73684.3,7.29,-12.21,-12.89,0,*71
1528768893.57,44627,19.0,73682.8,7.29,-12.21,-12.97,0,*7F
1528768894.78,44628,19.0,73682.0,7.29,-12.25,-12.97,0,*74
1528768896.06,44629,19.0,73678.0,7.31,-12.07,-12.79,0,*7C
1528768897.29,44630,19.0,73678.5,7.29,-12.11,-12.89,0,*75
1528768898.52,44631,19.0,73680.3,7.31,-12.21,-12.93,0,*75
1528768899.73,44632,18.94,73678.8,7.29,-12.25,-12.93,0,*7B
1528768900.98,44633,18.94,73676.3,7.31,-12.11,-12.89,0,*7F
1528768902.18,44634,19.0,73680.3,7.29,-12.25,-13.07,0,*71
1528768903.4,44635,19.0,73680.3,7.31,-12.39,-13.11,0,*73
1528768904.63,44636,19.0,73684.5,7.29,-12.35,-13.07,0,*72
1528768905.88,44637,18.94,73680.5,7.31,-12.35,-12.97,0,*72
1528768907.13,44638,19.0,73678.3,7.29,-11.93,-12.65,0,*76
1528768908.39,44639,19.0,73678.5,7.29,-12.11,-12.79,0,*73
1528768909.6,44640,18.94,73680.0,7.29,-12.21,-12.93,0,*7A
1528768910.83,44641,19.0,73678.8,7.31,-12.21,-12.97,0,*76
1528768912.06,44642,18.94,73676.8,7.31,-12.25,-12.93,0,*75
1528768913.27,44643,18.94,73676.0,7.29,-12.21,-12.89,0,*72
1528768914.55,44644,18.94,73674.3,7.31,-12.07,-12.79,0,*77
1528768915.8,44645,18.94,73672.5,7.29,-12.07,-12.75,0,*73
1528768917.03,44646,19.0,73678.8,7.29,-12.11,-12.89,0,*74
1528768918.28,44647,19.0,73676.0,7.31,-12.11,-12.89,0,*7C
1528768919.53,44648,19.0,73676.0,7.31,-12.11,-12.89,0,*73
1528768920.79,44649,19.0,73678.0,7.29,-12.11,-12.79,0,*74
1528768922.05,44650,18.94,73674.0,7.29,-12.07,-12.79,0,*7B
1528768923.3,44651,19.0,73672.8,7.31,-12.11,-12.93,0,*70
1528768924.55,44652,19.0,73676.5,7.29,-11.97,-12.65,0,*7E
1528768925.82,44653,18.94,73670.0,7.31,-11.81,-12.53,0,*74
1528768927.09,44654,19.0,73672.5,7.31,-11.89,-12.61,0,*7A
1528768928.36,44655,19.0,73670.3,7.31,-11.89,-12.61,0,*7B
1528768929.65,44656,18.94,73664.3,7.31,-11.93,-12.75,0,*76
1528768930.93,44657,19.0,73670.0,7.31,-11.93,-12.75,0,*77
1528768932.18,44658,18.94,73670.0,7.33,-11.89,-12.57,0,*71
1528768933.43,44659,19.0,73672.8,7.33,-11.85,-12.57,0,*7C
1528768934.66,44660,19.0,73674.8,7.33,-11.85,-12.47,0,*77
1528768935.89,44661,18.94,73670.3,7.33,-12.03,-12.75,0,*7A
1528768937.15,44662,18.94,73674.0,7.33,-11.89,-12.71,0,*7C
1528768938.37,44663,19.0,73676.3,7.33,-12.03,-12.75,0,*78
1528768939.64,44664,19.0,73676.5,7.33,-11.93,-12.75,0,*75
1528768940.92,44665,18.94,73674.3,7.35,-11.89,-12.71,0,*7D
1528768942.17,44666,19.0,73680.3,7.33,-12.15,-12.83,0,*73
1528768943.43,44667,19.0,73682.8,7.33,-11.93,-12.75,0,*76
1528768944.66,44668,18.94,73676.8,7.33,-11.77,-12.47,0,*72
1528768945.91,44669,18.94,73680.8,7.33,-11.73,-12.35,0,*72
1528768947.17,44670,19.0,73686.5,7.35,-11.59,-12.25,0,*75
1528768948.42,44671,18.94,73678.8,7.35,-11.67,-12.29,0,*75
1528768949.67,44672,18.94,73678.3,7.35,-11.81,-12.43,0,*72
1528768950.92,44673,19.0,73684.5,7.33,-11.89,-12.57,0,*78
1528768952.14,44674,18.94,73678.0,7.33,-12.03,-12.83,0,*77
1528768953.41,44675,19.0,73682.3,7.35,-11.97,-12.65,0,*76
1528768954.69,44676,18.94,73678.0,7.35,-11.85,-12.53,0,*73
1528768955.94,44677,18.94,73678.8,7.35,-11.81,-12.43,0,*77
1528768957.19,44678,19.0,73682.0,7.35,-11.81,-12.43,0,*78
1528768958.43,44679,18.94,73680.3,7.35,-11.81,-12.43,0,*79
1528768959.66,44680,18.94,73680.0,7.33,-11.85,-12.47,0,*79
1528768960.93,44681,19.0,73680.0,7.35,-11.85,-12.65,0,*7E
1528768962.2,44682,18.94,73680.5,7.35,-11.97,-12.65,0,*7E
1528768963.47,44683,18.94,73678.0,7.35,-11.97,-12.65,0,*7F
1528768964.72,44684,19.0,73676.8,7.37,-11.85,-12.65,0,*79
1528768965.97,44685,19.0,73676.8,7.37,-11.85,-12.57,0,*79
1528768967.22,44686,19.0,73678.3,7.37,-11.85,-12.65,0,*7B
1528768968.48,44687,19.0,73676.8,7.37,-11.85,-12.53,0,*7F
1528768969.73,44688,18.94,73672.5,7.37,-11.85,-12.57,0,*74
1528768970.98,44689,18.94,73674.0,7.37,-11.97,-12.71,0,*72
1528768972.24,44690,18.94,73672.0,7.37,-11.97,-12.71,0,*7A
1528768973.47,44691,19.0,73678.3,7.37,-12.03,-12.83,0,*78
1528768974.72,44692,18.94,73674.5,7.37,-12.11,-12.83,0,*78
1528768975.95,44693,18.94,73678.5,7.37,-12.11,-12.89,0,*73
1528768977.18,44694,19.0,73678.8,7.37,-12.15,-12.89,0,*70
1528768978.41,44695,18.94,73676.5,7.37,-12.03,-12.79,0,*79
1528768979.67,44696,18.94,73676.5,7.37,-11.97,-12.71,0,*7C
1528768980.93,44697,18.94,73674.0,7.37,-11.97,-12.71,0,*7D
1528768982.19,44698,19.0,73676.5,7.37,-11.97,-12.71,0,*72
1528768983.44,44699,19.0,73678.8,7.37,-11.97,-12.79,0,*7B
1528768984.69,44700,18.94,73678.0,7.37,-11.97,-12.61,0,*73
1528768985.97,44701,19.0,73682.8,7.39,-11.97,-12.79,0,*75
1528768987.25,44702,19.0,73682.5,7.39,-11.97,-12.79,0,*76
1528768988.53,44703,19.0,73676.8,7.39,-11.97,-12.75,0,*7B
1528768989.78,44704,18.94,73676.3,7.39,-12.11,-12.93,0,*79
1528768991.01,44705,18.94,73676.0,7.37,-12.07,-12.93,0,*71
1528768992.29,44706,19.0,73680.3,7.39,-12.07,-12.83,0,*7D
1528768993.57,44707,19.0,73678.8,7.39,-12.07,-12.83,0,*7C
1528768994.84,44708,18.94,73676.0,7.39,-12.11,-12.83,0,*74
1528768996.07,44709,19.0,73676.0,7.37,-12.15,-12.97,0,*7A
1528768997.3,44710,18.94,73674.5,7.37,-12.11,-12.89,0,*79
1528768998.58,44711,19.0,73678.5,7.39,-12.11,-12.79,0,*79
1528768999.86,44712,19.0,73680.0,7.39,-12.11,-12.83,0,*7F
1528769001.14,44713,18.94,73680.0,7.39,-12.07,-12.83,0,*79
1528769002.37,44714,18.94,73684.5,7.39,-12.21,-12.93,0,*7B
1528769003.6,44715,19.0,73684.3,7.39,-12.25,-12.93,0,*7E
1528769004.84,44716,18.94,73684.0,7.39,-12.21,-12.93,0,*79
1528769006.07,44717,18.94,73682.0,7.39,-12.21,-12.93,0,*78
1528769007.31,44718,19.0,73684.0,7.39,-12.21,-12.93,0,*77
1528769008.54,44719,18.94,73680.0,7.39,-12.25,-12.93,0,*72
1528769009.77,44720,18.94,73678.5,7.39,-12.25,-12.97,0,*7C
1528769010.99,44721,19.0,73682.8,7.39,-12.25,-13.07,0,*75
1528769012.25,44722,18.94,73676.3,7.39,-12.35,-12.97,0,*7F
1528769013.5,44723,18.94,73680.0,7.39,-12.35,-13.11,0,*71
1528769014.72,44724,19.0,73680.3,7.39,-12.39,-12.97,0,*75
1528769015.98,44725,18.94,73678.0,7.39,-12.35,-12.97,0,*78
1528769017.2,44726,19.0,73676.5,7.37,-12.25,-13.01,0,*7A
1528769018.42,44727,18.94,73676.3,7.39,-12.39,-13.07,0,*7E
1528769019.67,44728,19.0,73680.5,7.39,-12.35,-13.07,0,*7D
1528769020.91,44729,18.94,73678.0,7.39,-12.21,-12.97,0,*71
1528769022.11,44730,18.94,73678.8,7.37,-12.25,-12.97,0,*73
1528769023.34,44731,18.94,73676.0,7.39,-12.39,-12.97,0,*71
1528769024.56,44732,19.0,73680.0,7.39,-12.25,-13.07,0,*77
1528769025.82,44733,19.0,73680.0,7.39,-12.35,-12.97,0,*7F
1528769027.05,44734,18.94,73682.0,7.39,-12.21,-12.97,0,*7D
1528769028.28,44735,18.94,73676.5,7.37,-12.29,-13.01,0,*74
1528769029.51,44736,19.0,73680.5,7.39,-12.25,-12.97,0,*7B
1528769030.71,44737,19.0,73680.0,7.37,-12.43,-13.11,0,*7B
1528769031.95,44738,18.94,73678.8,7.39,-12.35,-13.07,0,*7C
1528769033.17,44739,18.94,73678.5,7.39,-12.39,-13.07,0,*71
1528769034.4,44740,18.94,73676.3,7.37,-12.43,-13.01,0,*7A
1528769035.65,44741,18.94,73680.0,7.39,-12.35,-13.11,0,*75
1528769036.87,44742,18.94,73672.0,7.39,-12.39,-13.07,0,*7D
1528769038.12,44743,18.94,73678.5,7.39,-12.35,-12.97,0,*78
1528769039.32,44744,18.94,73676.8,7.37,-12.39,-13.11,0,*72
1528769040.54,44745,18.94,73680.5,7.39,-12.39,-13.07,0,*7A
1528769041.79,44746,19.0,73680.3,7.39,-12.53,-13.11,0,*72
1528769043.02,44747,19.0,73682.8,7.37,-12.57,-13.15,0,*7D
1528769044.24,44748,18.94,73678.0,7.37,-12.53,-13.15,0,*76
1528769045.5,44749,18.94,73678.0,7.39,-12.53,-13.19,0,*75
1528769046.75,44750,18.94,73678.8,7.37,-12.57,-13.29,0,*74
1528769048.01,44751,19.0,73682.0,7.37,-12.53,-13.29,0,*71
1528769049.23,44752,18.94,73684.5,7.39,-12.47,-13.23,0,*73
1528769050.48,44753,19.0,73680.8,7.37,-12.57,-13.29,0,*77
1528769051.73,44754,18.94,73680.5,7.37,-12.65,-13.37,0,*7E
1528769052.98,44755,18.94,73682.8,7.37,-12.65,-13.37,0,*7F
1528769054.23,44756,19.0,73680.0,7.37,-12.65,-13.37,0,*7C
1528769055.46,44757,19.0,73682.8,7.37,-12.65,-13.23,0,*78
1528769056.68,44758,18.94,73680.8,7.37,-12.65,-13.23,0,*77
1528769057.93,44759,18.94,73682.3,7.35,-12.65,-13.23,0,*74
1528769059.2,44760,18.94,73678.0,7.35,-12.65,-13.29,0,*74
1528769060.48,44761,18.94,73678.8,7.35,-12.65,-13.37,0,*7A
1528769061.73,44762,19.0,73682.3,7.37,-12.65,-13.29,0,*74
1528769062.97,44763,18.94,73682.3,7.35,-12.71,-13.43,0,*7E
1528769064.24,44764,18.94,73676.3,7.35,-12.65,-13.37,0,*7F
1528769065.51,44765,18.94,73680.8,7.35,-12.65,-13.37,0,*7E
1528769066.79,44766,18.94,73676.0,7.35,-12.65,-13.37,0,*7D
1528769068.06,44767,18.94,73678.5,7.35,-12.65,-13.29,0,*73
1528769069.33,44768,19.0,73676.5,7.35,-12.65,-13.29,0,*7C
1528769070.58,44769,19.0,73676.8,7.33,-12.71,-13.33,0,*75
1528769071.84,44770,18.94,73676.3,7.33,-12.71,-13.33,0,*7D
1528769073.08,44771,18.94,73676.0,7.35,-12.65,-13.43,0,*78
1528769074.35,44772,19.0,73676.3,7.35,-12.65,-13.37,0,*78
1528769075.61,44773,19.0,73678.8,7.33,-12.71,-13.33,0,*7E
1528769076.88,44774,18.94,73676.8,7.35,-12.65,-13.29,0,*71
1528769078.13,44775,18.94,73676.3,7.33,-12.71,-13.33,0,*78
1528769079.38,44776,18.94,73678.8,7.33,-12.61,-13.33,0,*7A
1528769080.63,44777,19.0,73676.8,7.33,-12.71,-13.33,0,*7A
1528769081.88,44778,18.94,73672.0,7.35,-12.71,-13.43,0,*74
1528769083.1,44779,18.94,73674.8,7.33,-12.71,-13.43,0,*73
1528769084.33,44780,18.94,73672.8,7.33,-12.75,-13.43,0,*71
1528769085.58,44781,19.0,73676.0,7.35,-12.71,-13.55,0,*75
1528769086.82,44782,18.94,73674.5,7.35,-12.65,-13.43,0,*74
1528769088.06,44783,18.94,73678.0,7.35,-12.71,-13.47,0,*74
1528769089.28,44784,18.94,73676.0,7.33,-12.83,-13.47,0,*78
1528769090.5,44785,19.0,73676.8,7.33,-12.75,-13.47,0,*70
1528769091.73,44786,18.94,73674.8,7.33,-12.71,-13.43,0,*73
1528769092.97,44787,18.94,73676.8,7.31,-12.75,-13.47,0,*70
1528769094.21,44788,18.94,73676.0,7.31,-12.79,-13.51,0,*74
1528769095.47,44789,18.94,73674.5,7.29,-12.75,-13.37,0,*70
1528769096.71,44790,18.94,73678.3,7.31,-12.75,-13.47,0,*76
1528769097.96,44791,18.94,73676.3,7.31,-12.75,-13.51,0,*70
1528769099.21,44792,18.94,73680.0,7.31,-12.79,-13.51,0,*7F
1528769100.46,44793,19.0,73682.0,7.31,-12.75,-13.51,0,*72
1528769101.71,44794,19.0,73676.3,7.31,-12.79,-13.51,0,*79
1528769102.95,44795,18.94,73676.8,7.31,-12.79,-13.51,0,*78
1528769104.21,44796,19.0,73678.0,7.29,-12.79,-13.61,0,*71
1528769105.42,44797,18.94,73678.3,7.31,-12.89,-13.65,0,*72
1528769106.68,44798,18.94,73672.8,7.29,-12.79,-13.61,0,*7F
1528769107.88,44799,18.94,73672.8,7.29,-12.93,-13.65,0,*7E
1528769109.08,44800,18.94,73670.5,7.29,-12.89,-13.51,0,*7D
1528769110.28,44801,18.94,73674.0,7.29,-12.89,-13.51,0,*7C
1528769111.53,44802,18.94,73672.0,7.31,-12.93,-13.61,0,*7E
1528769112.76,44803,18.94,73676.3,7.29,-12.93,-13.61,0,*76
1528769113.99,44804,19.0,73676.8,7.27,-12.97,-13.65,0,*7F
1528769115.21,44805,18.94,73674.8,7.27,-12.93,-13.65,0,*7A
1528769116.43,44806,18.94,73672.8,7.27,-12.93,-13.55,0,*7A
1528769117.66,44807,18.94,73672.3,7.27,-12.93,-13.69,0,*74
1528769118.9,44808,18.94,73670.5,7.27,-13.01,-13.69,0,*71
1528769120.12,44809,18.94,73674.8,7.27,-12.97,-13.69,0,*7E
1528769121.34,44810,18.94,73674.0,7.27,-12.97,-13.69,0,*76
1528769122.58,44811,18.94,73670.5,7.27,-13.11,-13.79,0,*79
1528769123.83,44812,18.94,73674.3,7.25,-13.01,-13.79,0,*79
1528769125.07,44813,18.94,73672.0,7.27,-13.01,-13.69,0,*7B
1528769126.34,44814,18.94,73668.0,7.27,-13.01,-13.79,0,*7D
1528769127.58,44815,18.94,73672.5,7.27,-13.11,-13.79,0,*7D
1528769128.8,44816,18.94,73672.5,7.25,-13.01,-13.69,0,*7C
1528769130.04,44817,18.94,73670.8,7.25,-13.01,-13.79,0,*7C
1528769131.23,44818,18.94,73674.3,7.25,-13.11,-13.69,0,*73
1528769132.46,44819,18.94,73676.0,7.21,-13.07,-13.83,0,*75
1528769133.67,44820,19.0,73676.0,7.25,-13.11,-13.79,0,*79
1528769134.89,44821,18.94,73674.8,7.25,-13.01,-13.69,0,*78
1528769136.11,44822,18.94,73676.5,7.25,-13.01,-13.69,0,*7B
1528769137.31,44823,18.94,73672.8,7.21,-13.07,-13.73,0,*73
1528769138.54,44824,18.94,73678.5,7.21,-13.01,-13.73,0,*72
1528769139.75,44825,18.94,73678.8,7.19,-13.07,-13.73,0,*7E
1528769140.97,44826,18.94,73678.5,7.19,-13.07,-13.73,0,*7D
1528769142.23,44827,18.94,73672.5,7.21,-13.01,-13.61,0,*72
1528769143.43,44828,18.94,73676.5,7.21,-12.97,-13.69,0,*7B
1528769144.62,44829,18.94,73674.8,7.21,-12.89,-13.69,0,*75
1528769145.87,44830,18.94,73672.0,7.19,-13.01,-13.65,0,*7B
1528769147.09,44831,18.94,73672.8,7.17,-13.01,-13.73,0,*73
1528769148.29,44832,18.94,73678.5,7.17,-12.89,-13.51,0,*71
1528769149.51,44833,18.94,73678.8,7.19,-12.89,-13.51,0,*7E
1528769150.73,44834,18.94,73674.5,7.19,-12.89,-13.51,0,*79
1528769152.0,44835,18.94,73676.8,7.19,-12.79,-13.37,0,*77
1528769153.26,44836,18.94,73672.0,7.21,-12.75,-13.33,0,*77
1528769154.53,44837,18.94,73676.0,7.19,-12.79,-13.37,0,*75
1528769155.77,44838,18.94,73676.3,7.17,-12.79,-13.37,0,*74
1528769156.99,44839,18.94,73680.8,7.17,-12.79,-13.47,0,*72
1528769158.24,44840,18.94,73678.8,7.17,-12.79,-13.37,0,*7B
1528769159.49,44841,18.94,73676.8,7.15,-12.79,-13.43,0,*7B
1528769160.74,44842,19.0,73678.5,7.17,-12.75,-13.37,0,*75
1528769161.99,44843,18.94,73676.8,7.17,-12.75,-13.37,0,*74
1528769163.24,44844,18.94,73674.5,7.17,-12.75,-13.33,0,*77
1528769164.46,44845,18.94,73672.0,7.17,-12.65,-13.23,0,*76
1528769165.72,44846,18.94,73676.0,7.17,-12.75,-13.33,0,*75
1528769166.97,44847,18.94,73676.0,7.17,-12.79,-13.33,0,*78
1528769168.18,44848,18.94,73674.5,7.17,-12.79,-13.47,0,*74
1528769169.4,44849,18.94,73676.3,7.17,-12.79,-13.47,0,*75
1528769170.61,44850,19.0,73676.8,7.17,-12.79,-13.47,0,*7D
1528769171.87,44851,18.94,73674.3,7.17,-12.75,-13.33,0,*73
1528769173.12,44852,18.94,73678.0,7.17,-12.75,-13.33,0,*70
1528769174.37,44853,18.94,73676.3,7.15,-12.79,-13.23,0,*7E
1528769175.6,44854,18.94,73674.8,7.17,-12.65,-13.23,0,*76
1528769176.82,44855,18.94,73674.3,7.17,-12.61,-13.23,0,*73
1528769178.07,44856,18.94,73674.3,7.15,-12.57,-13.11,0,*76
1528769179.3,44857,18.94,73668.5,7.15,-12.25,-12.97,0,*7D
1528769180.53,44858,18.94,73674.8,7.17,-12.53,-13.11,0,*7E
1528769181.73,44859,18.94,73676.5,7.17,-12.47,-13.11,0,*7A
1528769182.96,44860,19.0,73672.0,7.17,-12.25,-12.79,0,*7B
1528769184.19,44861,18.94,73670.3,7.17,-12.11,-12.89,0,*72
1528769185.42,44862,18.94,73668.3,7.19,-12.21,-12.89,0,*7C
1528769186.65,44863,18.94,73672.3,7.19,-12.21,-12.89,0,*7D
1528769187.88,44864,18.94,73668.3,7.19,-12.25,-12.89,0,*7E
1528769189.14,44865,19.0,73670.5,7.21,-12.07,-12.75,0,*77
1528769190.39,44866,18.94,73664.0,7.19,-12.35,-12.93,0,*76
1528769191.64,44867,18.94,73672.0,7.21,-12.35,-13.01,0,*76
1528769192.84,44868,18.94,73668.8,7.21,-12.47,-13.15,0,*79
1528769194.03,44869,18.94,73670.8,7.21,-12.43,-13.07,0,*7F
1528769195.25,44870,18.94,73664.3,7.19,-12.47,-13.07,0,*78
1528769196.45,44871,18.94,73666.5,7.21,-12.43,-12.97,0,*7E
1528769197.66,44872,18.94,73664.0,7.21,-12.29,-12.97,0,*71
1528769198.86,44873,18.94,73668.5,7.21,-12.47,-13.07,0,*70
1528769200.09,44874,18.94,73664.8,7.21,-12.35,-12.97,0,*7A
1528769201.34,44875,18.94,73662.5,7.21,-12.35,-13.01,0,*75
1528769202.54,44876,18.94,73666.3,7.25,-12.43,-13.11,0,*72
1528769203.75,44877,18.94,73668.3,7.25,-12.43,-13.01,0,*72
1528769204.95,44878,18.94,73664.0,7.25,-12.39,-12.97,0,*7E
1528769206.18,44879,18.94,73664.3,7.27,-12.39,-12.97,0,*7D
1528769207.37,44880,18.94,73662.0,7.25,-12.39,-13.11,0,*76
1528769208.59,44881,18.94,73666.0,7.25,-12.43,-13.01,0,*7B
1528769209.79,44882,18.94,73664.8,7.25,-12.43,-13.11,0,*79
1528769211.01,44883,19.0,73668.0,7.25,-12.53,-13.11,0,*79
1528769212.23,44884,18.94,73668.3,7.25,-12.43,-13.01,0,*7E
1528769213.45,44885,18.94,73666.0,7.25,-12.57,-13.11,0,*7B
1528769214.68,44886,18.94,73668.3,7.25,-12.71,-13.23,0,*7D
1528769215.93,44887,18.94,73662.5,7.27,-12.65,-13.23,0,*7B
1528769217.15,44888,18.94,73664.0,7.25,-12.57,-13.15,0,*72
1528769218.37,44889,18.94,73666.3,7.25,-12.53,-13.15,0,*77
1528769219.62,44890,18.94,73664.8,7.27,-12.71,-13.23,0,*78
1528769220.85,44891,18.94,73664.0,7.25,-12.71,-13.23,0,*7B
1528769222.09,44892,18.94,73662.0,7.25,-12.71,-13.37,0,*7D
1528769223.34,44893,18.94,73656.0,7.25,-12.71,-13.29,0,*73
1528769224.61,44894,18.94,73652.8,7.27,-12.71,-13.29,0,*76
1528769225.84,44895,18.94,73648.3,7.25,-12.71,-13.23,0,*7F
1528769227.08,44896,18.94,73650.0,7.25,-12.83,-13.37,0,*74
1528769228.3,44897,18.94,73652.0,7.25,-12.83,-13.51,0,*75
1528769229.5,44898,18.94,73654.0,7.25,-12.93,-13.51,0,*7B
1528769230.7,44899,19.0,73658.0,7.25,-12.93,-13.51,0,*7A
1528769231.9,44900,18.94,73654.3,7.25,-12.97,-13.51,0,*7F
1528769233.1,44901,18.94,73658.8,7.25,-12.97,-13.51,0,*7E
1528769234.3,44902,18.94,73658.0,7.25,-12.93,-13.55,0,*7D
1528769235.53,44903,18.94,73662.0,7.25,-12.83,-13.51,0,*79
1528769236.72,44904,18.94,73660.0,7.25,-12.93,-13.43,0,*7C
1528769237.92,44905,18.94,73660.0,7.25,-12.97,-13.51,0,*7A
1528769239.12,44906,18.94,73660.8,7.25,-12.97,-13.55,0,*7D
1528769240.35,44907,18.94,73664.0,7.21,-13.01,-13.55,0,*76
1528769241.55,44908,18.94,73662.0,7.21,-12.97,-13.55,0,*77
1528769242.75,44909,18.94,73666.5,7.21,-12.89,-13.43,0,*7E
1528769243.97,44910,18.94,73664.0,7.19,-12.93,-13.47,0,*72
1528769245.19,44911,18.94,73666.0,7.19,-12.93,-13.47,0,*73
1528769246.43,44912,18.94,73664.0,7.19,-13.07,-13.61,0,*78
1528769247.64,44913,18.94,73662.8,7.21,-12.97,-13.55,0,*7D
1528769248.86,44914,18.94,73662.5,7.21,-13.01,-13.55,0,*74
1528769250.11,44915,18.94,73664.5,7.19,-13.07,-13.61,0,*7F
1528769251.33,44916,18.94,73662.0,7.19,-13.07,-13.65,0,*78
1528769252.55,44917,18.94,73664.8,7.19,-13.07,-13.65,0,*79
1528769253.77,44918,18.94,73660.5,7.19,-13.11,-13.73,0,*76
1528769254.99,44919,18.94,73664.5,7.19,-13.11,-13.51,0,*77
1528769256.21,44920,18.94,73664.5,7.21,-13.15,-13.61,0,*71
1528769257.41,44921,18.94,73666.8,7.17,-13.19,-13.65,0,*7D
1528769258.61,44922,18.94,73668.8,7.17,-13.11,-13.65,0,*76
1528769259.83,44923,18.94,73668.8,7.17,-13.07,-13.61,0,*74
1528769261.03,44924,18.94,73666.5,7.17,-13.07,-13.51,0,*70
1528769262.26,44925,19.0,73674.8,7.15,-13.07,-13.65,0,*74
1528769263.45,44926,18.94,73670.5,7.17,-13.07,-13.65,0,*75
1528769264.67,44927,18.94,73672.5,7.15,-13.15,-13.65,0,*75
1528769265.9,44928,18.94,73670.0,7.17,-13.07,-13.61,0,*7F
1528769267.12,44929,18.94,73668.5,7.17,-13.01,-13.51,0,*7B
1528769268.35,44930,18.94,73666.8,7.15,-12.97,-13.43,0,*7C
1528769269.57,44931,18.94,73668.3,7.15,-12.97,-13.43,0,*7D
1528769270.76,44932,19.0,73672.0,7.17,-13.07,-13.47,0,*70
1528769271.99,44933,18.94,73670.5,7.17,-12.93,-13.37,0,*7A
1528769273.19,44934,18.94,73668.0,7.17,-12.93,-13.43,0,*7E
1528769274.41,44935,18.94,73662.8,7.15,-12.97,-13.43,0,*79
1528769275.6,44936,18.94,73664.8,7.17,-12.89,-13.47,0,*73
1528769276.82,44937,18.94,73670.5,7.17,-12.89,-13.37,0,*75
1528769278.02,44938,18.94,73670.0,7.17,-12.93,-13.47,0,*76
1528769279.27,44939,18.94,73670.0,7.17,-13.01,-13.37,0,*7A
1528769280.49,44940,18.94,73664.3,7.15,-12.93,-13.43,0,*7F
1528769281.71,44941,19.0,73670.5,7.17,-12.93,-13.37,0,*7F
1528769282.91,44942,18.94,73666.8,7.17,-12.93,-13.47,0,*7B
1528769284.13,44943,18.94,73666.0,7.15,-13.07,-13.43,0,*70
1528769285.36,44944,18.94,73666.3,7.15,-12.97,-13.43,0,*7F
1528769286.58,44945,18.94,73664.0,7.15,-12.97,-13.43,0,*7E
1528769287.8,44946,18.94,73664.3,7.15,-13.07,-13.43,0,*75
1528769289.06,44947,18.94,73666.5,7.15,-12.93,-13.29,0,*74
1528769290.3,44948,18.94,73666.5,7.15,-12.65,-13.15,0,*7D
1528769291.55,44949,18.94,73662.3,7.15,-12.65,-13.15,0,*7C
1528769292.8,44950,18.94,73658.5,7.15,-12.65,-13.15,0,*74
1528769294.02,44951,18.94,73660.3,7.17,-12.53,-13.07,0,*71
1528769295.26,44952,18.94,73660.0,7.17,-12.75,-13.19,0,*79
1528769296.51,44953,18.94,73664.0,7.15,-12.57,-13.07,0,*75
1528769297.73,44954,18.94,73656.5,7.17,-12.65,-13.07,0,*71
1528769298.98,44955,19.0,73664.3,7.15,-12.57,-13.07,0,*73
1528769300.23,44956,18.94,73660.5,7.15,-12.65,-12.93,0,*7D
1528769301.43,44957,18.94,73656.8,7.17,-12.47,-12.89,0,*75
1528769302.69,44958,18.94,73658.8,7.17,-12.53,-12.79,0,*70
1528769303.92,44959,18.94,73656.0,7.17,-12.53,-12.93,0,*75
1528769305.14,44960,18.94,73660.0,7.19,-12.47,-12.93,0,*74